Time,TemperatureF,DewpointF,PressureIn,WindDirection,WindDirectionDegrees,WindSpeedMPH,WindSpeedGustMPH,Humidity,HourlyPrecipIn,Conditions,Clouds,dailyrainin,SoftwareType,DateUTC
2013-05-15 00:00:00,71.8,52.7,29.32,West,266,4.0,7.4,51,0.00,,---,0.00,VWS V14.00,2013-05-15 05:00:00,
2013-05-15 00:01:00,71.6,52.5,29.32,West,265,4.7,7.4,51,0.00,,---,0.00,VWS V14.00,2013-05-15 05:01:00,
2013-05-15 00:02:00,71.6,52.5,29.32,West,265,4.7,7.4,51,0.00,,---,0.00,VWS V14.00,2013-05-15 05:02:00,
2013-05-15 00:03:00,71.6,52.5,29.32,West,265,4.7,6.6,51,0.00,,---,0.00,VWS V14.00,2013-05-15 05:03:00,
2013-05-15 00:04:00,71.4,52.4,29.32,WNW,286,6.0,8.2,51,0.00,,---,0.00,VWS V14.00,2013-05-15 05:04:00,
2013-05-15 00:05:00,71.4,52.4,29.32,West,266,5.4,8.2,51,0.00,,---,0.00,VWS V14.00,2013-05-15 05:05:00,
2013-05-15 00:06:00,71.4,52.9,29.32,WSW,237,4.7,11.5,52,0.00,,---,0.00,VWS V14.00,2013-05-15 05:06:00,
2013-05-15 00:07:00,71.4,52.9,29.32,WSW,237,4.7,11.5,52,0.00,,---,0.00,VWS V14.00,2013-05-15 05:07:00,
2013-05-15 00:08:00,71.4,52.9,29.32,West,264,4.0,6.6,52,0.00,,---,0.00,VWS V14.00,2013-05-15 05:08:00,
2013-05-15 00:09:00,71.6,52.5,29.32,West,265,5.4,7.4,51,0.00,,---,0.00,VWS V14.00,2013-05-15 05:09:00,
2013-05-15 00:10:00,71.6,52.5,29.32,West,265,5.4,7.4,51,0.00,,---,0.00,VWS V14.00,2013-05-15 05:10:00,
2013-05-15 00:11:00,71.4,52.9,29.32,WSW,257,9.4,12.3,52,0.00,,---,0.00,VWS V14.00,2013-05-15 05:11:00,
2013-05-15 00:12:00,71.4,52.9,29.32,WSW,257,9.4,12.3,52,0.00,,---,0.00,VWS V14.00,2013-05-15 05:12:00,
2013-05-15 00:13:00,71.4,52.4,29.32,South,190,5.4,12.3,51,0.00,,---,0.00,VWS V14.00,2013-05-15 05:13:00,
2013-05-15 00:14:00,71.4,52.4,29.32,WSW,258,4.0,7.4,51,0.00,,---,0.00,VWS V14.00,2013-05-15 05:14:00,
2013-05-15 00:15:00,71.4,52.9,29.32,West,267,8.7,11.5,52,0.00,,---,0.00,VWS V14.00,2013-05-15 05:15:00,
2013-05-15 00:16:00,71.2,52.7,29.32,WNW,285,5.4,9.1,52,0.00,,---,0.00,VWS V14.00,2013-05-15 05:16:00,
2013-05-15 00:17:00,71.2,52.7,29.32,WNW,285,5.4,9.1,52,0.00,,---,0.00,VWS V14.00,2013-05-15 05:17:00,
2013-05-15 00:18:00,71.2,52.7,29.32,WNW,282,8.1,10.7,52,0.00,,---,0.00,VWS V14.00,2013-05-15 05:18:00,
2013-05-15 00:19:00,71.2,52.7,29.32,SSW,200,5.4,10.7,52,0.00,,---,0.00,VWS V14.00,2013-05-15 05:19:00,
2013-05-15 00:20:00,71.2,52.7,29.32,SSW,200,5.4,7.4,52,0.00,,---,0.00,VWS V14.00,2013-05-15 05:20:00,
2013-05-15 00:21:00,71.2,52.7,29.32,West,272,4.7,6.6,52,0.00,,---,0.00,VWS V14.00,2013-05-15 05:21:00,
2013-05-15 00:22:00,71.2,52.7,29.32,West,272,4.7,6.6,52,0.00,,---,0.00,VWS V14.00,2013-05-15 05:22:00,
2013-05-15 00:23:00,71.2,52.7,29.32,WSW,257,6.7,9.1,52,0.00,,---,0.00,VWS V14.00,2013-05-15 05:23:00,
2013-05-15 00:24:00,71.2,52.7,29.32,West,266,6.0,9.1,52,0.00,,---,0.00,VWS V14.00,2013-05-15 05:24:00,
2013-05-15 00:25:00,71.2,52.7,29.32,SW,216,4.7,9.9,52,0.00,,---,0.00,VWS V14.00,2013-05-15 05:25:00,
2013-05-15 00:26:00,71.2,52.7,29.32,West,272,5.4,7.4,52,0.00,,---,0.00,VWS V14.00,2013-05-15 05:26:00,
2013-05-15 00:27:00,71.2,52.7,29.32,West,278,7.4,9.9,52,0.00,,---,0.00,VWS V14.00,2013-05-15 05:27:00,
2013-05-15 00:28:00,71.1,52.6,29.32,WSW,252,4.7,9.9,52,0.00,,---,0.00,VWS V14.00,2013-05-15 05:28:00,
2013-05-15 00:29:00,71.1,52.6,29.32,WSW,247,4.0,6.6,52,0.00,,---,0.00,VWS V14.00,2013-05-15 05:29:00,
2013-05-15 00:30:00,71.1,52.6,29.32,West,272,5.4,10.7,52,0.00,,---,0.00,VWS V14.00,2013-05-15 05:30:00,
2013-05-15 00:31:00,71.1,52.6,29.32,WSW,251,5.4,7.4,52,0.00,,---,0.00,VWS V14.00,2013-05-15 05:31:00,
2013-05-15 00:32:00,71.1,52.6,29.32,NW,310,5.4,7.4,52,0.00,,---,0.00,VWS V14.00,2013-05-15 05:32:00,
2013-05-15 00:33:00,71.1,52.6,29.32,WSW,240,4.0,7.4,52,0.00,,---,0.00,VWS V14.00,2013-05-15 05:33:00,
2013-05-15 00:34:00,70.9,52.4,29.32,West,272,0.0,5.8,52,0.00,,---,0.00,VWS V14.00,2013-05-15 05:34:00,
2013-05-15 00:35:00,70.9,52.4,29.32,WNW,290,4.7,8.2,52,0.00,,---,0.00,VWS V14.00,2013-05-15 05:35:00,
2013-05-15 00:36:00,70.9,52.4,29.32,WSW,245,4.7,7.4,52,0.00,,---,0.00,VWS V14.00,2013-05-15 05:36:00,
2013-05-15 00:37:00,70.9,52.4,29.32,WSW,253,4.7,7.4,52,0.00,,---,0.00,VWS V14.00,2013-05-15 05:37:00,
2013-05-15 00:38:00,70.9,52.4,29.32,WNW,294,6.0,11.5,52,0.00,,---,0.00,VWS V14.00,2013-05-15 05:38:00,
2013-05-15 00:39:00,70.9,52.4,29.32,WNW,294,6.0,8.2,52,0.00,,---,0.00,VWS V14.00,2013-05-15 05:39:00,
2013-05-15 00:40:00,70.9,52.4,29.32,NW,305,9.4,12.3,52,0.00,,---,0.00,VWS V14.00,2013-05-15 05:40:00,
2013-05-15 00:41:00,70.9,52.4,29.32,SSW,208,4.0,6.6,52,0.00,,---,0.00,VWS V14.00,2013-05-15 05:41:00,
2013-05-15 00:42:00,70.9,52.4,29.32,SSW,208,4.0,6.6,52,0.00,,---,0.00,VWS V14.00,2013-05-15 05:42:00,
2013-05-15 00:43:00,70.9,52.4,29.32,West,278,7.4,12.3,52,0.00,,---,0.00,VWS V14.00,2013-05-15 05:43:00,
2013-05-15 00:44:00,70.9,52.4,29.32,WSW,253,5.4,9.9,52,0.00,,---,0.00,VWS V14.00,2013-05-15 05:44:00,
2013-05-15 00:45:00,70.9,52.4,29.32,West,278,4.0,7.4,52,0.00,,---,0.00,VWS V14.00,2013-05-15 05:45:00,
2013-05-15 00:46:00,70.7,52.2,29.32,WSW,243,4.0,6.6,52,0.00,,---,0.00,VWS V14.00,2013-05-15 05:46:00,
2013-05-15 00:47:00,70.7,52.2,29.32,WSW,243,4.0,6.6,52,0.00,,---,0.00,VWS V14.00,2013-05-15 05:47:00,
2013-05-15 00:48:00,70.7,52.2,29.32,West,272,5.4,8.2,52,0.00,,---,0.00,VWS V14.00,2013-05-15 05:48:00,
2013-05-15 00:49:00,70.9,52.4,29.32,West,265,6.0,11.5,52,0.00,,---,0.00,VWS V14.00,2013-05-15 05:49:00,
2013-05-15 00:50:00,70.9,52.4,29.32,West,274,5.4,8.2,52,0.00,,---,0.00,VWS V14.00,2013-05-15 05:50:00,
2013-05-15 00:51:00,70.7,52.2,29.32,WSW,237,5.4,7.4,52,0.00,,---,0.00,VWS V14.00,2013-05-15 05:51:00,
2013-05-15 00:52:00,70.7,52.2,29.32,WSW,250,5.4,11.5,52,0.00,,---,0.00,VWS V14.00,2013-05-15 05:52:00,
2013-05-15 00:53:00,70.7,52.2,29.32,WSW,250,5.4,7.4,52,0.00,,---,0.00,VWS V14.00,2013-05-15 05:53:00,
2013-05-15 00:54:00,70.7,52.2,29.32,WSW,250,5.4,7.4,52,0.00,,---,0.00,VWS V14.00,2013-05-15 05:54:00,
2013-05-15 00:55:00,70.7,52.2,29.32,West,271,4.0,7.4,52,0.00,,---,0.00,VWS V14.00,2013-05-15 05:55:00,
2013-05-15 00:56:00,70.7,52.2,29.32,WSW,256,4.7,6.6,52,0.00,,---,0.00,VWS V14.00,2013-05-15 05:56:00,
2013-05-15 00:57:00,70.5,52.1,29.32,WSW,256,4.7,6.6,52,0.00,,---,0.00,VWS V14.00,2013-05-15 05:57:00,
2013-05-15 00:58:00,70.5,52.1,29.32,WNW,283,3.4,6.6,52,0.00,,---,0.00,VWS V14.00,2013-05-15 05:58:00,
2013-05-15 00:59:00,70.5,52.1,29.32,SSW,212,6.7,9.9,52,0.00,,---,0.00,VWS V14.00,2013-05-15 05:59:00,
2013-05-15 01:00:00,70.5,52.1,29.32,SSW,212,6.7,9.1,52,0.00,,---,0.00,VWS V14.00,2013-05-15 06:00:00,
2013-05-15 01:01:00,70.5,52.1,29.32,WSW,237,8.7,15.9,52,0.00,,---,0.00,VWS V14.00,2013-05-15 06:01:00,
2013-05-15 01:02:00,70.5,52.1,29.32,WSW,237,8.7,15.9,52,0.00,,---,0.00,VWS V14.00,2013-05-15 06:02:00,
2013-05-15 01:03:00,70.7,52.2,29.32,WSW,249,8.1,11.5,52,0.00,,---,0.00,VWS V14.00,2013-05-15 06:03:00,
2013-05-15 01:04:00,70.7,52.2,29.32,WSW,251,4.7,10.7,52,0.00,,---,0.00,VWS V14.00,2013-05-15 06:04:00,
2013-05-15 01:05:00,70.7,52.2,29.32,WSW,250,6.0,8.2,52,0.00,,---,0.00,VWS V14.00,2013-05-15 06:05:00,
2013-05-15 01:06:00,70.7,52.2,29.32,WSW,237,4.0,7.4,52,0.00,,---,0.00,VWS V14.00,2013-05-15 06:06:00,
2013-05-15 01:07:00,70.7,52.2,29.32,West,261,4.7,7.4,52,0.00,,---,0.00,VWS V14.00,2013-05-15 06:07:00,
2013-05-15 01:08:00,70.7,52.2,29.32,WSW,251,4.7,6.6,52,0.00,,---,0.00,VWS V14.00,2013-05-15 06:08:00,
2013-05-15 01:09:00,70.5,52.1,29.32,West,263,5.4,7.4,52,0.00,,---,0.00,VWS V14.00,2013-05-15 06:09:00,
2013-05-15 01:10:00,70.5,52.1,29.32,NW,318,5.4,7.4,52,0.00,,---,0.00,VWS V14.00,2013-05-15 06:10:00,
2013-05-15 01:11:00,70.3,51.9,29.32,WSW,247,6.0,8.2,52,0.00,,---,0.00,VWS V14.00,2013-05-15 06:11:00,
2013-05-15 01:12:00,70.3,51.9,29.32,WSW,247,6.0,8.2,52,0.00,,---,0.00,VWS V14.00,2013-05-15 06:12:00,
2013-05-15 01:13:00,70.3,51.9,29.32,West,275,0.0,8.2,52,0.00,,---,0.00,VWS V14.00,2013-05-15 06:13:00,
2013-05-15 01:14:00,70.3,51.9,29.32,WSW,256,7.4,9.9,52,0.00,,---,0.00,VWS V14.00,2013-05-15 06:14:00,
2013-05-15 01:15:00,70.3,51.9,29.32,SW,236,5.4,9.9,52,0.00,,---,0.00,VWS V14.00,2013-05-15 06:15:00,
2013-05-15 01:16:00,70.3,51.9,29.32,SW,220,4.0,12.3,52,0.00,,---,0.00,VWS V14.00,2013-05-15 06:16:00,
2013-05-15 01:17:00,70.3,51.9,29.32,WNW,290,4.0,12.3,52,0.00,,---,0.00,VWS V14.00,2013-05-15 06:17:00,
2013-05-15 01:18:00,70.2,51.7,29.32,SW,227,4.7,8.2,52,0.00,,---,0.00,VWS V14.00,2013-05-15 06:18:00,
2013-05-15 01:19:00,70.3,51.9,29.32,SW,227,4.7,6.6,52,0.00,,---,0.00,VWS V14.00,2013-05-15 06:19:00,
2013-05-15 01:20:00,70.3,51.9,29.32,SW,233,5.4,11.5,52,0.00,,---,0.00,VWS V14.00,2013-05-15 06:20:00,
2013-05-15 01:21:00,70.3,51.9,29.32,SW,233,5.4,7.4,52,0.00,,---,0.00,VWS V14.00,2013-05-15 06:21:00,
2013-05-15 01:22:00,70.3,51.9,29.32,SW,233,5.4,7.4,52,0.00,,---,0.00,VWS V14.00,2013-05-15 06:22:00,
2013-05-15 01:23:00,70.3,51.9,29.32,West,273,4.7,7.4,52,0.00,,---,0.00,VWS V14.00,2013-05-15 06:23:00,
2013-05-15 01:24:00,70.2,51.7,29.32,West,268,6.0,8.2,52,0.00,,---,0.00,VWS V14.00,2013-05-15 06:24:00,
2013-05-15 01:25:00,70.2,51.7,29.32,West,271,4.0,9.1,52,0.00,,---,0.00,VWS V14.00,2013-05-15 06:25:00,
2013-05-15 01:26:00,70.2,51.7,29.32,West,269,4.7,6.6,52,0.00,,---,0.00,VWS V14.00,2013-05-15 06:26:00,
2013-05-15 01:27:00,70.2,51.7,29.32,West,269,4.7,6.6,52,0.00,,---,0.00,VWS V14.00,2013-05-15 06:27:00,
2013-05-15 01:28:00,70.2,51.7,29.32,West,271,4.0,6.6,52,0.00,,---,0.00,VWS V14.00,2013-05-15 06:28:00,
2013-05-15 01:29:00,70.0,51.6,29.32,West,267,4.7,8.2,52,0.00,,---,0.00,VWS V14.00,2013-05-15 06:29:00,
2013-05-15 01:30:00,70.2,51.7,29.32,WSW,252,5.4,7.4,52,0.00,,---,0.00,VWS V14.00,2013-05-15 06:30:00,
2013-05-15 01:31:00,70.0,51.6,29.32,West,261,4.7,7.4,52,0.00,,---,0.00,VWS V14.00,2013-05-15 06:31:00,
2013-05-15 01:32:00,70.0,51.6,29.32,SW,236,5.4,7.4,52,0.00,,---,0.00,VWS V14.00,2013-05-15 06:32:00,
2013-05-15 01:33:00,70.0,51.6,29.32,West,274,5.4,7.4,52,0.00,,---,0.00,VWS V14.00,2013-05-15 06:33:00,
2013-05-15 01:34:00,70.0,51.6,29.35,West,274,5.4,7.4,52,0.00,,---,0.00,VWS V14.00,2013-05-15 06:34:00,
2013-05-15 01:35:00,70.0,51.6,29.35,West,281,8.1,10.7,52,0.00,,---,0.00,VWS V14.00,2013-05-15 06:35:00,
2013-05-15 01:36:00,69.8,51.9,29.35,SW,233,4.0,10.7,53,0.00,,---,0.00,VWS V14.00,2013-05-15 06:36:00,
2013-05-15 01:37:00,70.0,51.6,29.35,SW,233,4.0,10.7,52,0.00,,---,0.00,VWS V14.00,2013-05-15 06:37:00,
2013-05-15 01:38:00,70.0,51.6,29.35,WSW,246,4.7,7.4,52,0.00,,---,0.00,VWS V14.00,2013-05-15 06:38:00,
2013-05-15 01:39:00,70.0,51.6,29.35,WSW,252,4.7,8.2,52,0.00,,---,0.00,VWS V14.00,2013-05-15 06:39:00,
2013-05-15 01:40:00,70.0,51.6,29.35,West,271,5.4,7.4,52,0.00,,---,0.00,VWS V14.00,2013-05-15 06:40:00,
2013-05-15 01:41:00,70.0,51.6,29.35,WSW,250,0.0,7.4,52,0.00,,---,0.00,VWS V14.00,2013-05-15 06:41:00,
2013-05-15 01:42:00,69.6,51.8,29.35,WSW,254,5.4,7.4,53,0.00,,---,0.00,VWS V14.00,2013-05-15 06:42:00,
2013-05-15 01:43:00,69.6,51.8,29.35,WSW,254,5.4,7.4,53,0.00,,---,0.00,VWS V14.00,2013-05-15 06:43:00,
2013-05-15 01:44:00,69.6,51.8,29.35,West,276,7.4,9.9,53,0.00,,---,0.00,VWS V14.00,2013-05-15 06:44:00,
2013-05-15 01:45:00,69.6,51.8,29.35,West,274,4.0,9.9,53,0.00,,---,0.00,VWS V14.00,2013-05-15 06:45:00,
2013-05-15 01:46:00,69.6,51.8,29.35,WSW,254,4.7,6.6,53,0.00,,---,0.00,VWS V14.00,2013-05-15 06:46:00,
2013-05-15 01:47:00,69.6,51.8,29.35,WSW,254,4.7,6.6,53,0.00,,---,0.00,VWS V14.00,2013-05-15 06:47:00,
2013-05-15 01:48:00,69.6,51.8,29.35,West,261,5.4,11.5,53,0.00,,---,0.00,VWS V14.00,2013-05-15 06:48:00,
2013-05-15 01:49:00,69.6,51.8,29.35,West,272,4.7,8.2,53,0.00,,---,0.00,VWS V14.00,2013-05-15 06:49:00,
2013-05-15 01:50:00,69.6,51.8,29.35,WNW,289,5.4,7.4,53,0.00,,---,0.00,VWS V14.00,2013-05-15 06:50:00,
2013-05-15 01:51:00,69.4,51.6,29.35,West,262,5.4,7.4,53,0.00,,---,0.00,VWS V14.00,2013-05-15 06:51:00,
2013-05-15 01:52:00,69.4,51.6,29.35,West,262,5.4,7.4,53,0.00,,---,0.00,VWS V14.00,2013-05-15 06:52:00,
2013-05-15 01:53:00,69.4,51.6,29.35,WSW,242,3.4,7.4,53,0.00,,---,0.00,VWS V14.00,2013-05-15 06:53:00,
2013-05-15 01:54:00,69.4,51.6,29.35,West,264,5.4,7.4,53,0.00,,---,0.00,VWS V14.00,2013-05-15 06:54:00,
2013-05-15 01:55:00,69.3,51.9,29.35,West,278,4.7,8.2,54,0.00,,---,0.00,VWS V14.00,2013-05-15 06:55:00,
2013-05-15 01:56:00,69.3,51.9,29.35,West,276,5.4,11.5,54,0.00,,---,0.00,VWS V14.00,2013-05-15 06:56:00,
2013-05-15 01:57:00,69.3,51.9,29.35,West,276,5.4,11.5,54,0.00,,---,0.00,VWS V14.00,2013-05-15 06:57:00,
2013-05-15 01:58:00,69.3,51.9,29.35,West,277,7.4,9.9,54,0.00,,---,0.00,VWS V14.00,2013-05-15 06:58:00,
2013-05-15 01:59:00,69.3,51.9,29.35,SW,222,4.0,9.9,54,0.00,,---,0.00,VWS V14.00,2013-05-15 06:59:00,
2013-05-15 02:00:00,69.3,51.9,29.35,SSW,208,5.4,8.2,54,0.00,,---,0.00,VWS V14.00,2013-05-15 07:00:00,
2013-05-15 02:01:00,69.3,51.9,29.35,WSW,244,6.0,8.2,54,0.00,,---,0.00,VWS V14.00,2013-05-15 07:01:00,
2013-05-15 02:02:00,69.1,51.8,29.35,West,267,4.0,8.2,54,0.00,,---,0.00,VWS V14.00,2013-05-15 07:02:00,
2013-05-15 02:03:00,69.1,51.8,29.35,West,267,4.0,5.8,54,0.00,,---,0.00,VWS V14.00,2013-05-15 07:03:00,
2013-05-15 02:04:00,69.1,51.8,29.35,WSW,237,6.0,8.2,54,0.00,,---,0.00,VWS V14.00,2013-05-15 07:04:00,
2013-05-15 02:05:00,69.1,51.8,29.35,WSW,254,4.7,11.5,54,0.00,,---,0.00,VWS V14.00,2013-05-15 07:05:00,
2013-05-15 02:06:00,69.1,51.8,29.35,West,274,6.0,8.2,54,0.00,,---,0.00,VWS V14.00,2013-05-15 07:06:00,
2013-05-15 02:07:00,69.1,51.8,29.35,West,274,6.0,8.2,54,0.00,,---,0.00,VWS V14.00,2013-05-15 07:07:00,
2013-05-15 02:08:00,68.9,51.6,29.35,West,270,7.4,9.9,54,0.00,,---,0.00,VWS V14.00,2013-05-15 07:08:00,
2013-05-15 02:09:00,68.9,51.6,29.35,West,266,7.4,9.9,54,0.00,,---,0.00,VWS V14.00,2013-05-15 07:09:00,
2013-05-15 02:10:00,68.9,51.6,29.35,WNW,290,6.0,11.5,54,0.00,,---,0.00,VWS V14.00,2013-05-15 07:10:00,
2013-05-15 02:11:00,68.9,52.1,29.35,West,260,4.0,10.7,55,0.00,,---,0.00,VWS V14.00,2013-05-15 07:11:00,
2013-05-15 02:12:00,68.9,52.1,29.35,West,260,4.0,10.7,55,0.00,,---,0.00,VWS V14.00,2013-05-15 07:12:00,
2013-05-15 02:13:00,68.9,52.1,29.35,West,259,4.0,5.8,55,0.00,,---,0.00,VWS V14.00,2013-05-15 07:13:00,
2013-05-15 02:14:00,68.9,52.1,29.35,WSW,251,0.0,5.8,55,0.00,,---,0.00,VWS V14.00,2013-05-15 07:14:00,
2013-05-15 02:15:00,68.7,51.9,29.35,WSW,248,6.0,8.2,55,0.00,,---,0.00,VWS V14.00,2013-05-15 07:15:00,
2013-05-15 02:16:00,68.7,51.9,29.35,West,267,4.7,6.6,55,0.00,,---,0.00,VWS V14.00,2013-05-15 07:16:00,
2013-05-15 02:17:00,68.7,51.9,29.35,West,273,4.0,6.6,55,0.00,,---,0.00,VWS V14.00,2013-05-15 07:17:00,
2013-05-15 02:18:00,68.5,51.8,29.35,WSW,244,4.0,5.8,55,0.00,,---,0.00,VWS V14.00,2013-05-15 07:18:00,
2013-05-15 02:19:00,68.5,51.8,29.35,West,265,4.7,6.6,55,0.00,,---,0.00,VWS V14.00,2013-05-15 07:19:00,
2013-05-15 02:20:00,68.5,51.8,29.35,WSW,254,3.4,6.6,55,0.00,,---,0.00,VWS V14.00,2013-05-15 07:20:00,
2013-05-15 02:21:00,68.5,51.8,29.35,West,263,4.7,6.6,55,0.00,,---,0.00,VWS V14.00,2013-05-15 07:21:00,
2013-05-15 02:22:00,68.5,51.8,29.35,West,263,4.7,6.6,55,0.00,,---,0.00,VWS V14.00,2013-05-15 07:22:00,
2013-05-15 02:23:00,68.5,51.8,29.35,WSW,247,6.0,10.7,55,0.00,,---,0.00,VWS V14.00,2013-05-15 07:23:00,
2013-05-15 02:24:00,68.5,51.8,29.35,WSW,254,5.4,8.2,55,0.00,,---,0.00,VWS V14.00,2013-05-15 07:24:00,
2013-05-15 02:25:00,68.5,51.8,29.35,WSW,254,4.0,7.4,55,0.00,,---,0.00,VWS V14.00,2013-05-15 07:25:00,
2013-05-15 02:26:00,68.4,52.1,29.35,WSW,254,4.0,5.8,56,0.00,,---,0.00,VWS V14.00,2013-05-15 07:26:00,
2013-05-15 02:27:00,68.4,52.1,29.35,WSW,251,8.7,11.5,56,0.00,,---,0.00,VWS V14.00,2013-05-15 07:27:00,
2013-05-15 02:28:00,68.4,52.1,29.35,WSW,255,4.0,11.5,56,0.00,,---,0.00,VWS V14.00,2013-05-15 07:28:00,
2013-05-15 02:29:00,68.4,52.1,29.35,WSW,240,5.4,7.4,56,0.00,,---,0.00,VWS V14.00,2013-05-15 07:29:00,
2013-05-15 02:30:00,68.4,52.1,29.35,WSW,249,4.7,7.4,56,0.00,,---,0.00,VWS V14.00,2013-05-15 07:30:00,
2013-05-15 02:31:00,68.4,52.1,29.35,SW,228,4.7,6.6,56,0.00,,---,0.00,VWS V14.00,2013-05-15 07:31:00,
2013-05-15 02:32:00,68.4,52.1,29.35,SW,228,4.7,6.6,56,0.00,,---,0.00,VWS V14.00,2013-05-15 07:32:00,
2013-05-15 02:33:00,68.4,51.6,29.35,WSW,249,4.7,6.6,55,0.00,,---,0.00,VWS V14.00,2013-05-15 07:33:00,
2013-05-15 02:34:00,68.4,52.1,29.35,West,260,5.4,7.4,56,0.00,,---,0.00,VWS V14.00,2013-05-15 07:34:00,
2013-05-15 02:35:00,68.4,52.1,29.35,WSW,248,3.4,7.4,56,0.00,,---,0.00,VWS V14.00,2013-05-15 07:35:00,
2013-05-15 02:36:00,68.2,51.9,29.35,WSW,240,4.7,6.6,56,0.00,,---,0.00,VWS V14.00,2013-05-15 07:36:00,
2013-05-15 02:37:00,68.2,51.9,29.35,WSW,240,4.7,6.6,56,0.00,,---,0.00,VWS V14.00,2013-05-15 07:37:00,
2013-05-15 02:38:00,68.2,51.9,29.35,WSW,240,4.7,6.6,56,0.00,,---,0.00,VWS V14.00,2013-05-15 07:38:00,
2013-05-15 02:39:00,68.2,51.9,29.35,WSW,250,3.4,6.6,56,0.00,,---,0.00,VWS V14.00,2013-05-15 07:39:00,
2013-05-15 02:40:00,68.0,51.7,29.35,WSW,251,4.0,8.2,56,0.00,,---,0.00,VWS V14.00,2013-05-15 07:40:00,
2013-05-15 02:41:00,68.0,51.7,29.35,WSW,240,3.4,5.8,56,0.00,,---,0.00,VWS V14.00,2013-05-15 07:41:00,
2013-05-15 02:42:00,68.0,51.7,29.35,WSW,240,3.4,5.8,56,0.00,,---,0.00,VWS V14.00,2013-05-15 07:42:00,
2013-05-15 02:43:00,68.0,51.7,29.35,West,261,6.0,8.2,56,0.00,,---,0.00,VWS V14.00,2013-05-15 07:43:00,
2013-05-15 02:44:00,68.0,51.7,29.35,WSW,251,6.0,8.2,56,0.00,,---,0.00,VWS V14.00,2013-05-15 07:44:00,
2013-05-15 02:45:00,68.0,51.7,29.35,WSW,257,4.0,8.2,56,0.00,,---,0.00,VWS V14.00,2013-05-15 07:45:00,
2013-05-15 02:46:00,68.0,51.7,29.35,West,268,3.4,7.4,56,0.00,,---,0.00,VWS V14.00,2013-05-15 07:46:00,
2013-05-15 02:47:00,68.0,51.7,29.35,WSW,241,5.4,7.4,56,0.00,,---,0.00,VWS V14.00,2013-05-15 07:47:00,
2013-05-15 02:48:00,67.8,52.0,29.35,WSW,257,5.4,7.4,57,0.00,,---,0.00,VWS V14.00,2013-05-15 07:48:00,
2013-05-15 02:49:00,67.8,52.0,29.35,West,280,4.0,7.4,57,0.00,,---,0.00,VWS V14.00,2013-05-15 07:49:00,
2013-05-15 02:50:00,67.8,52.0,29.35,West,264,4.0,5.8,57,0.00,,---,0.00,VWS V14.00,2013-05-15 07:50:00,
2013-05-15 02:51:00,67.8,52.0,29.35,West,269,4.7,6.6,57,0.00,,---,0.00,VWS V14.00,2013-05-15 07:51:00,
2013-05-15 02:52:00,67.8,52.0,29.35,West,269,4.7,6.6,57,0.00,,---,0.00,VWS V14.00,2013-05-15 07:52:00,
2013-05-15 02:53:00,67.8,52.0,29.35,West,272,4.0,6.6,57,0.00,,---,0.00,VWS V14.00,2013-05-15 07:53:00,
2013-05-15 02:54:00,67.6,51.9,29.35,West,265,4.7,6.6,57,0.00,,---,0.00,VWS V14.00,2013-05-15 07:54:00,
2013-05-15 02:55:00,67.6,51.9,29.35,West,265,4.7,6.6,57,0.00,,---,0.00,VWS V14.00,2013-05-15 07:55:00,
2013-05-15 02:56:00,67.5,52.2,29.35,West,259,4.7,6.6,58,0.00,,---,0.00,VWS V14.00,2013-05-15 07:56:00,
2013-05-15 02:57:00,67.5,52.2,29.35,SW,226,0.0,6.6,58,0.00,,---,0.00,VWS V14.00,2013-05-15 07:57:00,
2013-05-15 02:58:00,67.5,52.2,29.35,WSW,248,0.0,1.0,58,0.00,,---,0.00,VWS V14.00,2013-05-15 07:58:00,
2013-05-15 02:59:00,67.5,52.2,29.35,WSW,244,4.7,6.6,58,0.00,,---,0.00,VWS V14.00,2013-05-15 07:59:00,
2013-05-15 03:00:00,67.5,52.2,29.35,WSW,248,4.0,7.4,58,0.00,,---,0.00,VWS V14.00,2013-05-15 08:00:00,
2013-05-15 03:01:00,67.5,52.2,29.35,WSW,248,4.0,5.8,58,0.00,,---,0.00,VWS V14.00,2013-05-15 08:01:00,
2013-05-15 03:02:00,67.5,52.2,29.35,WSW,243,7.4,9.9,58,0.00,,---,0.00,VWS V14.00,2013-05-15 08:02:00,
2013-05-15 03:03:00,67.5,52.2,29.35,WSW,243,7.4,9.9,58,0.00,,---,0.00,VWS V14.00,2013-05-15 08:03:00,
2013-05-15 03:04:00,67.6,52.3,29.35,West,261,5.4,9.9,58,0.00,,---,0.00,VWS V14.00,2013-05-15 08:04:00,
2013-05-15 03:05:00,67.6,52.3,29.35,West,271,6.0,8.2,58,0.00,,---,0.00,VWS V14.00,2013-05-15 08:05:00,
2013-05-15 03:06:00,67.5,52.2,29.35,West,280,4.7,6.6,58,0.00,,---,0.00,VWS V14.00,2013-05-15 08:06:00,
2013-05-15 03:07:00,67.5,52.2,29.35,WNW,284,5.4,7.4,58,0.00,,---,0.00,VWS V14.00,2013-05-15 08:07:00,
2013-05-15 03:08:00,67.5,52.2,29.35,West,260,5.4,8.2,58,0.00,,---,0.00,VWS V14.00,2013-05-15 08:08:00,
2013-05-15 03:09:00,67.5,52.2,29.35,SW,230,4.0,8.2,58,0.00,,---,0.00,VWS V14.00,2013-05-15 08:09:00,
2013-05-15 03:10:00,67.5,52.2,29.35,WSW,254,4.0,5.8,58,0.00,,---,0.00,VWS V14.00,2013-05-15 08:10:00,
2013-05-15 03:11:00,67.3,52.0,29.35,West,264,5.4,7.4,58,0.00,,---,0.00,VWS V14.00,2013-05-15 08:11:00,
2013-05-15 03:12:00,67.3,52.0,29.35,West,264,5.4,7.4,58,0.00,,---,0.00,VWS V14.00,2013-05-15 08:12:00,
2013-05-15 03:13:00,67.3,52.0,29.35,West,264,5.4,7.4,58,0.00,,---,0.00,VWS V14.00,2013-05-15 08:13:00,
2013-05-15 03:14:00,67.3,52.0,29.35,WSW,255,4.0,8.2,58,0.00,,---,0.00,VWS V14.00,2013-05-15 08:14:00,
2013-05-15 03:15:00,67.3,52.0,29.35,WSW,255,4.0,5.8,58,0.00,,---,0.00,VWS V14.00,2013-05-15 08:15:00,
2013-05-15 03:16:00,67.3,52.0,29.35,West,263,7.4,9.9,58,0.00,,---,0.00,VWS V14.00,2013-05-15 08:16:00,
2013-05-15 03:17:00,67.1,52.3,29.35,WSW,242,6.0,9.9,59,0.00,,---,0.00,VWS V14.00,2013-05-15 08:17:00,
2013-05-15 03:18:00,67.1,52.3,29.35,WSW,248,4.0,8.2,59,0.00,,---,0.00,VWS V14.00,2013-05-15 08:18:00,
2013-05-15 03:19:00,67.1,52.3,29.35,WSW,257,4.0,5.8,59,0.00,,---,0.00,VWS V14.00,2013-05-15 08:19:00,
2013-05-15 03:20:00,67.1,52.3,29.35,WNW,284,3.4,5.8,59,0.00,,---,0.00,VWS V14.00,2013-05-15 08:20:00,
2013-05-15 03:21:00,67.1,52.3,29.35,WSW,245,8.1,10.7,59,0.00,,---,0.00,VWS V14.00,2013-05-15 08:21:00,
2013-05-15 03:22:00,67.1,52.3,29.35,WSW,254,5.4,10.7,59,0.00,,---,0.00,VWS V14.00,2013-05-15 08:22:00,
2013-05-15 03:23:00,67.1,52.3,29.35,WSW,254,5.4,7.4,59,0.00,,---,0.00,VWS V14.00,2013-05-15 08:23:00,
2013-05-15 03:24:00,67.1,52.3,29.35,West,276,4.7,7.4,59,0.00,,---,0.00,VWS V14.00,2013-05-15 08:24:00,
2013-05-15 03:25:00,67.1,52.3,29.35,WSW,253,4.7,6.6,59,0.00,,---,0.00,VWS V14.00,2013-05-15 08:25:00,
2013-05-15 03:26:00,66.9,52.1,29.35,WNW,292,4.7,6.6,59,0.00,,---,0.00,VWS V14.00,2013-05-15 08:26:00,
2013-05-15 03:27:00,66.9,52.1,29.35,WNW,292,4.7,6.6,59,0.00,,---,0.00,VWS V14.00,2013-05-15 08:27:00,
2013-05-15 03:28:00,66.9,52.1,29.35,WSW,248,4.7,6.6,59,0.00,,---,0.00,VWS V14.00,2013-05-15 08:28:00,
2013-05-15 03:29:00,66.9,52.1,29.35,WSW,248,4.7,6.6,59,0.00,,---,0.00,VWS V14.00,2013-05-15 08:29:00,
2013-05-15 03:30:00,66.7,52.0,29.35,WSW,255,4.0,8.2,59,0.00,,---,0.00,VWS V14.00,2013-05-15 08:30:00,
2013-05-15 03:31:00,66.7,52.4,29.35,West,278,4.7,6.6,60,0.00,,---,0.00,VWS V14.00,2013-05-15 08:31:00,
2013-05-15 03:32:00,66.7,52.4,29.35,WSW,243,5.4,7.4,60,0.00,,---,0.00,VWS V14.00,2013-05-15 08:32:00,
2013-05-15 03:33:00,66.7,52.4,29.35,West,278,4.7,7.4,60,0.00,,---,0.00,VWS V14.00,2013-05-15 08:33:00,
2013-05-15 03:34:00,66.7,52.0,29.35,WSW,257,3.4,6.6,59,0.00,,---,0.00,VWS V14.00,2013-05-15 08:34:00,
2013-05-15 03:35:00,66.7,52.4,29.35,West,264,4.7,6.6,60,0.00,,---,0.00,VWS V14.00,2013-05-15 08:35:00,
2013-05-15 03:36:00,66.7,52.4,29.35,West,262,5.4,7.4,60,0.00,,---,0.00,VWS V14.00,2013-05-15 08:36:00,
2013-05-15 03:45:00,66.6,52.3,29.35,WSW,250,6.0,8.2,60,0.00,,---,0.00,VWS V14.00,2013-05-15 08:45:00,
2013-05-15 03:50:00,66.4,52.1,29.35,West,260,6.0,8.2,60,0.00,,---,0.00,VWS V14.00,2013-05-15 08:50:00,
2013-05-15 03:55:00,66.4,52.1,29.35,WSW,247,6.0,8.2,60,0.00,,---,0.00,VWS V14.00,2013-05-15 08:55:00,
2013-05-15 04:00:00,66.2,52.4,29.35,West,264,4.7,7.4,61,0.00,,---,0.00,VWS V14.00,2013-05-15 09:00:00,
2013-05-15 04:05:00,66.0,52.2,29.35,West,271,4.7,8.2,61,0.00,,---,0.00,VWS V14.00,2013-05-15 09:05:00,
2013-05-15 04:10:00,66.2,52.4,29.35,West,264,5.4,7.4,61,0.00,,---,0.00,VWS V14.00,2013-05-15 09:10:00,
2013-05-15 04:15:00,65.8,52.0,29.35,West,265,3.4,6.6,61,0.00,,---,0.00,VWS V14.00,2013-05-15 09:15:00,
2013-05-15 04:20:00,65.8,52.0,29.35,West,271,4.7,8.2,61,0.00,,---,0.00,VWS V14.00,2013-05-15 09:20:00,
2013-05-15 04:25:00,65.8,52.0,29.35,West,268,4.0,7.4,61,0.00,,---,0.00,VWS V14.00,2013-05-15 09:25:00,
2013-05-15 04:30:00,65.5,51.7,29.38,West,265,4.7,6.6,61,0.00,,---,0.00,VWS V14.00,2013-05-15 09:30:00,
2013-05-15 04:35:00,65.1,51.8,29.38,WSW,250,4.7,8.2,62,0.00,,---,0.00,VWS V14.00,2013-05-15 09:35:00,
2013-05-15 04:40:00,65.1,51.8,29.38,WSW,248,4.0,6.6,62,0.00,,---,0.00,VWS V14.00,2013-05-15 09:40:00,
2013-05-15 04:45:00,64.8,51.5,29.38,WSW,241,4.0,9.9,62,0.00,,---,0.00,VWS V14.00,2013-05-15 09:45:00,
2013-05-15 04:50:00,64.9,51.6,29.38,WNW,282,5.4,8.2,62,0.00,,---,0.00,VWS V14.00,2013-05-15 09:50:00,
2013-05-15 04:55:00,64.8,51.9,29.38,WSW,248,5.4,8.2,63,0.00,,---,0.00,VWS V14.00,2013-05-15 09:55:00,
2013-05-15 05:00:00,64.8,51.9,29.38,West,261,4.7,7.4,63,0.00,,---,0.00,VWS V14.00,2013-05-15 10:00:00,
2013-05-15 05:05:00,64.4,51.5,29.38,WNW,290,4.0,6.6,63,0.00,,---,0.00,VWS V14.00,2013-05-15 10:05:00,
2013-05-15 05:10:00,64.2,51.8,29.38,West,262,3.4,6.6,64,0.00,,---,0.00,VWS V14.00,2013-05-15 10:10:00,
2013-05-15 05:15:00,64.2,51.8,29.38,West,277,4.0,6.6,64,0.00,,---,0.00,VWS V14.00,2013-05-15 10:15:00,
2013-05-15 05:20:00,64.2,51.8,29.38,West,265,7.4,9.9,64,0.00,,---,0.00,VWS V14.00,2013-05-15 10:20:00,
2013-05-15 05:25:00,64.2,51.8,29.38,West,265,4.0,5.8,64,0.00,,---,0.00,VWS V14.00,2013-05-15 10:25:00,
2013-05-15 05:30:00,64.2,51.8,29.38,West,264,0.0,1.0,64,0.00,,---,0.00,VWS V14.00,2013-05-15 10:30:00,
2013-05-15 05:36:00,63.9,51.5,29.38,WSW,254,0.0,5.0,64,0.00,,---,0.00,VWS V14.00,2013-05-15 10:36:00,
2013-05-15 05:41:00,63.9,51.9,29.38,West,265,0.0,5.0,65,0.00,,---,0.00,VWS V14.00,2013-05-15 10:41:00,
2013-05-15 05:46:00,63.7,51.7,29.38,WSW,253,0.0,1.0,65,0.00,,---,0.00,VWS V14.00,2013-05-15 10:46:00,
2013-05-15 05:51:00,63.5,51.5,29.38,WSW,255,5.4,7.4,65,0.00,,---,0.00,VWS V14.00,2013-05-15 10:51:00,
2013-05-15 05:56:00,63.5,51.5,29.38,West,268,3.4,6.6,65,0.00,,---,0.00,VWS V14.00,2013-05-15 10:56:00,
2013-05-15 06:01:00,63.7,51.7,29.38,WSW,257,4.0,6.6,65,0.00,,---,0.00,VWS V14.00,2013-05-15 11:01:00,
2013-05-15 06:06:00,63.7,51.7,29.38,West,261,4.0,5.8,65,0.00,,---,0.00,VWS V14.00,2013-05-15 11:06:00,
2013-05-15 06:11:00,63.7,51.7,29.38,West,271,0.0,5.0,65,0.00,,---,0.00,VWS V14.00,2013-05-15 11:11:00,
2013-05-15 06:16:00,63.7,51.7,29.38,WSW,255,4.0,5.8,65,0.00,,---,0.00,VWS V14.00,2013-05-15 11:16:00,
2013-05-15 06:21:00,63.9,52.3,29.38,WSW,257,3.4,5.8,66,0.00,,---,0.00,VWS V14.00,2013-05-15 11:21:00,
2013-05-15 06:26:00,63.9,52.3,29.38,West,263,5.4,7.4,66,0.00,,---,0.00,VWS V14.00,2013-05-15 11:26:00,
2013-05-15 06:32:00,64.2,52.6,29.38,WSW,255,4.0,6.6,66,0.00,,---,0.00,VWS V14.00,2013-05-15 11:32:00,
2013-05-15 06:37:00,64.4,52.4,29.38,West,264,6.0,8.2,65,0.00,,---,0.00,VWS V14.00,2013-05-15 11:37:00,
2013-05-15 06:42:00,64.4,52.4,29.38,WSW,254,4.0,7.4,65,0.00,,---,0.00,VWS V14.00,2013-05-15 11:42:00,
2013-05-15 06:47:00,64.8,52.7,29.41,WSW,255,6.0,8.2,65,0.00,,---,0.00,VWS V14.00,2013-05-15 11:47:00,
2013-05-15 06:52:00,64.9,52.9,29.41,West,265,5.4,7.4,65,0.00,,---,0.00,VWS V14.00,2013-05-15 11:52:00,
2013-05-15 06:57:00,65.1,53.1,29.41,SW,236,6.0,8.2,65,0.00,,---,0.00,VWS V14.00,2013-05-15 11:57:00,
2013-05-15 07:02:00,65.5,53.4,29.41,WSW,241,0.0,1.0,65,0.00,,---,0.00,VWS V14.00,2013-05-15 12:02:00,
2013-05-15 07:07:00,65.5,53.4,29.41,WSW,243,4.0,5.8,65,0.00,,---,0.00,VWS V14.00,2013-05-15 12:07:00,
2013-05-15 07:12:00,66.2,53.7,29.41,WSW,252,5.4,7.4,64,0.00,,---,0.00,VWS V14.00,2013-05-15 12:12:00,
2013-05-15 07:17:00,66.6,53.6,29.41,WSW,240,0.0,5.8,63,0.00,,---,0.00,VWS V14.00,2013-05-15 12:17:00,
2013-05-15 07:22:00,66.9,53.5,29.41,West,269,4.0,5.8,62,0.00,,---,0.00,VWS V14.00,2013-05-15 12:22:00,
2013-05-15 07:28:00,67.1,53.7,29.41,WNW,282,11.4,14.7,62,0.00,,---,0.00,VWS V14.00,2013-05-15 12:28:00,
2013-05-15 07:32:00,67.5,53.6,29.41,WSW,245,5.4,7.4,61,0.00,,---,0.00,VWS V14.00,2013-05-15 12:32:00,
2013-05-15 07:37:00,67.5,53.6,29.41,WSW,253,8.1,10.7,61,0.00,,---,0.00,VWS V14.00,2013-05-15 12:37:00,
2013-05-15 07:43:00,68.2,53.8,29.41,WSW,248,6.0,8.2,60,0.00,,---,0.00,VWS V14.00,2013-05-15 12:43:00,
2013-05-15 07:48:00,68.4,53.5,29.41,WNW,290,7.4,9.9,59,0.00,,---,0.00,VWS V14.00,2013-05-15 12:48:00,
2013-05-15 07:53:00,68.7,53.4,29.41,SW,218,4.0,6.6,58,0.00,,---,0.00,VWS V14.00,2013-05-15 12:53:00,
2013-05-15 07:58:00,68.9,53.5,29.41,SW,218,4.0,5.8,58,0.00,,---,0.00,VWS V14.00,2013-05-15 12:58:00,
2013-05-15 08:03:00,69.1,53.7,29.41,WSW,253,4.0,11.5,58,0.00,,---,0.00,VWS V14.00,2013-05-15 13:03:00,
2013-05-15 08:08:00,69.6,53.7,29.41,SW,231,4.7,9.9,57,0.00,,---,0.00,VWS V14.00,2013-05-15 13:08:00,
2013-05-15 08:13:00,69.6,53.7,29.41,WSW,239,6.0,10.7,57,0.00,,---,0.00,VWS V14.00,2013-05-15 13:13:00,
2013-05-15 08:18:00,69.8,53.4,29.41,SW,234,5.4,7.4,56,0.00,,---,0.00,VWS V14.00,2013-05-15 13:18:00,
2013-05-15 08:23:00,70.2,53.8,29.41,SSE,157,0.0,1.0,56,0.00,,---,0.00,VWS V14.00,2013-05-15 13:23:00,
2013-05-15 08:28:00,70.3,53.9,29.41,SSW,204,6.0,8.2,56,0.00,,---,0.00,VWS V14.00,2013-05-15 13:28:00,
2013-05-15 08:33:00,70.7,53.8,29.41,WSW,251,8.1,10.7,55,0.00,,---,0.00,VWS V14.00,2013-05-15 13:33:00,
2013-05-15 08:38:00,70.7,53.8,29.41,West,272,7.4,9.9,55,0.00,,---,0.00,VWS V14.00,2013-05-15 13:38:00,
2013-05-15 08:43:00,71.1,54.1,29.41,SW,231,4.7,7.4,55,0.00,,---,0.00,VWS V14.00,2013-05-15 13:43:00,
2013-05-15 08:49:00,71.4,54.4,29.41,SW,236,4.0,5.8,55,0.00,,---,0.00,VWS V14.00,2013-05-15 13:49:00,
2013-05-15 08:54:00,71.6,54.1,29.41,WSW,258,7.4,9.9,54,0.00,,---,0.00,VWS V14.00,2013-05-15 13:54:00,
2013-05-15 08:59:00,71.6,54.1,29.41,WSW,248,0.0,7.4,54,0.00,,---,0.00,VWS V14.00,2013-05-15 13:59:00,
2013-05-15 09:04:00,72.1,54.6,29.41,WSW,249,4.7,6.6,54,0.00,,---,0.00,VWS V14.00,2013-05-15 14:04:00,
2013-05-15 09:09:00,72.1,54.6,29.41,WSW,237,5.4,10.7,54,0.00,,---,0.00,VWS V14.00,2013-05-15 14:09:00,
2013-05-15 09:14:00,72.7,54.6,29.41,NNW,341,4.7,6.6,53,0.00,,---,0.00,VWS V14.00,2013-05-15 14:14:00,
2013-05-15 09:19:00,72.7,54.6,29.41,NW,317,6.0,12.3,53,0.00,,---,0.00,VWS V14.00,2013-05-15 14:19:00,
2013-05-15 09:24:00,73.2,54.6,29.41,West,273,3.4,7.4,52,0.00,,---,0.00,VWS V14.00,2013-05-15 14:24:00,
2013-05-15 09:29:00,73.6,54.4,29.41,West,273,6.0,8.2,51,0.00,,---,0.00,VWS V14.00,2013-05-15 14:29:00,
2013-05-15 09:34:00,73.6,54.4,29.41,West,261,5.4,7.4,51,0.00,,---,0.00,VWS V14.00,2013-05-15 14:34:00,
2013-05-15 09:40:00,73.9,54.7,29.41,West,269,5.4,7.4,51,0.00,,---,0.00,VWS V14.00,2013-05-15 14:40:00,
2013-05-15 09:45:00,73.9,54.7,29.41,West,268,4.7,6.6,51,0.00,,---,0.00,VWS V14.00,2013-05-15 14:45:00,
2013-05-15 09:50:00,74.5,54.6,29.41,West,261,6.0,8.2,50,0.00,,---,0.00,VWS V14.00,2013-05-15 14:50:00,
2013-05-15 09:55:00,74.7,54.8,29.41,WSW,246,3.4,11.5,50,0.00,,---,0.00,VWS V14.00,2013-05-15 14:55:00,
2013-05-15 10:00:00,75.0,55.1,29.41,WSW,243,8.1,10.7,50,0.00,,---,0.00,VWS V14.00,2013-05-15 15:00:00,
2013-05-15 10:05:00,75.4,55.5,29.41,West,267,5.4,7.4,50,0.00,,---,0.00,VWS V14.00,2013-05-15 15:05:00,
2013-05-15 10:10:00,75.4,55.5,29.41,West,274,4.7,6.6,50,0.00,,---,0.00,VWS V14.00,2013-05-15 15:10:00,
2013-05-15 10:15:00,75.7,55.2,29.41,WSW,254,6.0,8.2,49,0.00,,---,0.00,VWS V14.00,2013-05-15 15:15:00,
2013-05-15 10:20:00,75.7,54.1,29.41,WNW,291,6.0,8.2,47,0.00,,---,0.00,VWS V14.00,2013-05-15 15:20:00,
2013-05-15 10:25:00,75.9,54.8,29.41,SW,217,11.4,14.7,48,0.00,,---,0.00,VWS V14.00,2013-05-15 15:25:00,
2013-05-15 10:30:00,76.3,54.6,29.41,WNW,301,8.7,11.5,47,0.00,,---,0.00,VWS V14.00,2013-05-15 15:30:00,
2013-05-15 10:35:00,76.3,54.6,29.41,WSW,251,9.4,12.3,47,0.00,,---,0.00,VWS V14.00,2013-05-15 15:35:00,
2013-05-15 10:40:00,76.5,54.8,29.41,SSW,200,4.0,8.2,47,0.00,,---,0.00,VWS V14.00,2013-05-15 15:40:00,
2013-05-15 10:45:00,77.0,55.2,29.41,SW,214,4.7,6.6,47,0.00,,---,0.00,VWS V14.00,2013-05-15 15:45:00,
2013-05-15 10:51:00,77.0,54.1,29.41,South,189,4.0,6.6,45,0.00,,---,0.00,VWS V14.00,2013-05-15 15:51:00,
2013-05-15 10:56:00,77.4,54.4,29.41,West,265,5.4,7.4,45,0.00,,---,0.00,VWS V14.00,2013-05-15 15:56:00,
2013-05-15 11:01:00,77.4,53.8,29.41,WSW,251,4.0,9.9,44,0.00,,---,0.00,VWS V14.00,2013-05-15 16:01:00,
2013-05-15 11:06:00,77.4,53.8,29.41,WNW,285,7.4,9.9,44,0.00,,---,0.00,VWS V14.00,2013-05-15 16:06:00,
2013-05-15 11:11:00,77.9,54.3,29.41,SSW,203,0.0,6.6,44,0.00,,---,0.00,VWS V14.00,2013-05-15 16:11:00,
2013-05-15 11:16:00,78.3,55.2,29.41,West,260,7.4,9.9,45,0.00,,---,0.00,VWS V14.00,2013-05-15 16:16:00,
2013-05-15 11:21:00,78.4,54.7,29.41,WSW,244,9.4,12.3,44,0.00,,---,0.00,VWS V14.00,2013-05-15 16:21:00,
2013-05-15 11:26:00,78.4,53.5,29.41,WSW,254,5.4,12.3,42,0.00,,---,0.00,VWS V14.00,2013-05-15 16:26:00,
2013-05-15 11:31:00,78.6,54.3,29.41,West,261,4.0,8.2,43,0.00,,---,0.00,VWS V14.00,2013-05-15 16:31:00,
2013-05-15 11:36:00,79.0,53.3,29.41,WNW,283,6.0,8.2,41,0.00,,---,0.00,VWS V14.00,2013-05-15 16:36:00,
2013-05-15 11:41:00,79.2,50.7,29.41,WSW,251,8.7,11.5,37,0.00,,---,0.00,VWS V14.00,2013-05-15 16:41:00,
2013-05-15 11:46:00,79.2,51.4,29.41,West,275,5.4,7.4,38,0.00,,---,0.00,VWS V14.00,2013-05-15 16:46:00,
2013-05-15 11:51:00,79.3,51.5,29.41,NNW,348,6.0,8.2,38,0.00,,---,0.00,VWS V14.00,2013-05-15 16:51:00,
2013-05-15 11:56:00,79.5,50.2,29.41,West,275,7.4,9.9,36,0.00,,---,0.00,VWS V14.00,2013-05-15 16:56:00,
2013-05-15 12:01:00,79.7,49.7,29.38,WSW,246,5.4,7.4,35,0.00,,---,0.00,VWS V14.00,2013-05-15 17:01:00,
2013-05-15 12:06:00,79.7,49.7,29.38,West,275,6.0,8.2,35,0.00,,---,0.00,VWS V14.00,2013-05-15 17:06:00,
2013-05-15 12:11:00,79.7,49.7,29.38,SSW,207,4.7,6.6,35,0.00,,---,0.00,VWS V14.00,2013-05-15 17:11:00,
2013-05-15 12:16:00,80.4,50.3,29.38,WSW,248,4.0,5.8,35,0.00,,---,0.00,VWS V14.00,2013-05-15 17:16:00,
2013-05-15 12:21:00,80.8,50.6,29.38,WSW,241,5.4,7.4,35,0.00,,---,0.00,VWS V14.00,2013-05-15 17:21:00,
2013-05-15 12:26:00,80.8,49.8,29.38,West,262,5.4,8.2,34,0.00,,---,0.00,VWS V14.00,2013-05-15 17:26:00,
2013-05-15 12:31:00,81.0,50.0,29.38,SW,230,4.0,5.8,34,0.00,,---,0.00,VWS V14.00,2013-05-15 17:31:00,
2013-05-15 12:36:00,81.0,50.0,29.38,West,272,5.4,7.4,34,0.00,,---,0.00,VWS V14.00,2013-05-15 17:36:00,
2013-05-15 12:41:00,81.3,50.3,29.38,NW,324,4.7,6.6,34,0.00,,---,0.00,VWS V14.00,2013-05-15 17:41:00,
2013-05-15 12:46:00,81.3,49.5,29.38,WSW,258,8.1,10.7,33,0.00,,---,0.00,VWS V14.00,2013-05-15 17:46:00,
2013-05-15 12:51:00,81.5,49.7,29.38,SSW,196,0.0,8.2,33,0.00,,---,0.00,VWS V14.00,2013-05-15 17:51:00,
2013-05-15 12:56:00,81.9,50.8,29.38,West,261,5.4,7.4,34,0.00,,---,0.00,VWS V14.00,2013-05-15 17:56:00,
2013-05-15 13:01:00,82.0,50.1,29.38,WSW,251,4.0,5.8,33,0.00,,---,0.00,VWS V14.00,2013-05-15 18:01:00,
2013-05-15 13:06:00,82.4,50.4,29.38,WSW,254,6.0,8.2,33,0.00,,---,0.00,VWS V14.00,2013-05-15 18:06:00,
2013-05-15 13:11:00,82.4,50.4,29.38,SSW,203,4.0,5.8,33,0.00,,---,0.00,VWS V14.00,2013-05-15 18:11:00,
2013-05-15 13:16:00,82.2,50.3,29.35,WSW,250,7.4,9.9,33,0.00,,---,0.00,VWS V14.00,2013-05-15 18:16:00,
2013-05-15 13:21:00,82.6,50.6,29.35,WNW,289,6.0,8.2,33,0.00,,---,0.00,VWS V14.00,2013-05-15 18:21:00,
2013-05-15 13:27:00,82.9,50.9,29.35,West,266,8.1,10.7,33,0.00,,---,0.00,VWS V14.00,2013-05-15 18:27:00,
2013-05-15 13:32:00,82.8,51.6,29.35,WSW,257,5.4,7.4,34,0.00,,---,0.00,VWS V14.00,2013-05-15 18:32:00,
2013-05-15 13:37:00,83.1,52.7,29.35,WSW,240,6.0,8.2,35,0.00,,---,0.00,VWS V14.00,2013-05-15 18:37:00,
2013-05-15 13:42:00,83.5,53.0,29.35,SSE,149,3.4,7.4,35,0.00,,---,0.00,VWS V14.00,2013-05-15 18:42:00,
2013-05-15 13:47:00,84.0,53.5,29.35,WNW,291,8.1,10.7,35,0.00,,---,0.00,VWS V14.00,2013-05-15 18:47:00,
2013-05-15 13:52:00,83.3,52.8,29.35,WSW,246,6.0,10.7,35,0.00,,---,0.00,VWS V14.00,2013-05-15 18:52:00,
2013-05-15 13:57:00,83.3,53.6,29.35,WNW,291,6.0,8.2,36,0.00,,---,0.00,VWS V14.00,2013-05-15 18:57:00,
2013-05-15 14:02:00,82.8,53.1,29.35,WNW,296,6.0,8.2,36,0.00,,---,0.00,VWS V14.00,2013-05-15 19:02:00,
2013-05-15 14:07:00,82.6,53.0,29.35,West,270,4.0,5.8,36,0.00,,---,0.00,VWS V14.00,2013-05-15 19:07:00,
2013-05-15 14:12:00,82.4,55.0,29.35,West,279,4.7,6.6,39,0.00,,---,0.00,VWS V14.00,2013-05-15 19:12:00,
2013-05-15 14:17:00,82.4,55.0,29.35,West,276,7.4,9.9,39,0.00,,---,0.00,VWS V14.00,2013-05-15 19:17:00,
2013-05-15 14:22:00,82.4,55.7,29.35,SW,229,6.0,8.2,40,0.00,,---,0.00,VWS V14.00,2013-05-15 19:22:00,
2013-05-15 14:27:00,82.2,54.8,29.35,West,269,9.4,13.9,39,0.00,,---,0.00,VWS V14.00,2013-05-15 19:27:00,
2013-05-15 14:32:00,82.2,54.8,29.32,WSW,247,7.4,9.9,39,0.00,,---,0.00,VWS V14.00,2013-05-15 19:32:00,
2013-05-15 14:38:00,82.4,55.0,29.32,SSW,205,0.0,1.0,39,0.00,,---,0.00,VWS V14.00,2013-05-15 19:38:00,
2013-05-15 14:43:00,82.4,55.0,29.32,West,265,4.7,6.6,39,0.00,,---,0.00,VWS V14.00,2013-05-15 19:43:00,
2013-05-15 14:48:00,82.6,54.4,29.32,SW,231,7.4,9.9,38,0.00,,---,0.00,VWS V14.00,2013-05-15 19:48:00,
2013-05-15 14:53:00,82.8,54.6,29.32,SSW,206,5.4,7.4,38,0.00,,---,0.00,VWS V14.00,2013-05-15 19:53:00,
2013-05-15 14:58:00,82.8,53.9,29.32,WSW,252,5.4,12.3,37,0.00,,---,0.00,VWS V14.00,2013-05-15 19:58:00,
2013-05-15 15:03:00,82.8,54.6,29.32,NW,316,5.4,7.4,38,0.00,,---,0.00,VWS V14.00,2013-05-15 20:03:00,
2013-05-15 15:08:00,82.9,54.0,29.32,South,179,4.0,12.3,37,0.00,,---,0.00,VWS V14.00,2013-05-15 20:08:00,
2013-05-15 15:13:00,82.8,54.6,29.32,WSW,241,0.0,1.0,38,0.00,,---,0.00,VWS V14.00,2013-05-15 20:13:00,
2013-05-15 15:18:00,82.8,56.0,29.32,West,278,5.4,7.4,40,0.00,,---,0.00,VWS V14.00,2013-05-15 20:18:00,
2013-05-15 15:23:00,83.1,57.0,29.32,WSW,253,4.7,6.6,41,0.00,,---,0.00,VWS V14.00,2013-05-15 20:23:00,
2013-05-15 15:28:00,82.9,56.2,29.32,SSW,212,6.0,8.2,40,0.00,,---,0.00,VWS V14.00,2013-05-15 20:28:00,
2013-05-15 15:33:00,82.6,53.7,29.32,WSW,251,9.4,12.3,37,0.00,,---,0.00,VWS V14.00,2013-05-15 20:33:00,
2013-05-15 15:38:00,82.4,55.0,29.32,WSW,254,4.7,6.6,39,0.00,,---,0.00,VWS V14.00,2013-05-15 20:38:00,
2013-05-15 15:43:00,82.4,54.3,29.32,NW,310,5.4,7.4,38,0.00,,---,0.00,VWS V14.00,2013-05-15 20:43:00,
2013-05-15 15:48:00,82.0,54.0,29.32,West,271,6.0,8.2,38,0.00,,---,0.00,VWS V14.00,2013-05-15 20:48:00,
2013-05-15 15:53:00,82.2,54.8,29.32,West,264,4.7,11.5,39,0.00,,---,0.00,VWS V14.00,2013-05-15 20:53:00,
2013-05-15 15:58:00,82.2,54.1,29.32,NW,319,4.0,5.8,38,0.00,,---,0.00,VWS V14.00,2013-05-15 20:58:00,
2013-05-15 16:03:00,82.4,55.0,29.32,WSW,254,4.7,6.6,39,0.00,,---,0.00,VWS V14.00,2013-05-15 21:03:00,
2013-05-15 16:08:00,81.9,53.1,29.32,South,181,8.7,11.5,37,0.00,,---,0.00,VWS V14.00,2013-05-15 21:08:00,
2013-05-15 16:13:00,81.9,53.1,29.32,WNW,300,4.0,5.8,37,0.00,,---,0.00,VWS V14.00,2013-05-15 21:13:00,
2013-05-15 16:18:00,81.1,54.5,29.32,SW,233,6.0,8.2,40,0.00,,---,0.00,VWS V14.00,2013-05-15 21:18:00,
2013-05-15 16:23:00,80.8,54.9,29.32,SSW,212,4.7,6.6,41,0.00,,---,0.00,VWS V14.00,2013-05-15 21:23:00,
2013-05-15 16:28:00,80.2,53.8,29.32,SW,231,8.7,11.5,40,0.00,,---,0.00,VWS V14.00,2013-05-15 21:28:00,
2013-05-15 16:34:00,79.9,53.4,29.32,SW,236,0.0,1.0,40,0.00,,---,0.00,VWS V14.00,2013-05-15 21:34:00,
2013-05-15 16:39:00,79.7,51.9,29.32,SW,232,4.0,5.8,38,0.00,,---,0.00,VWS V14.00,2013-05-15 21:39:00,
2013-05-15 16:44:00,79.5,52.4,29.32,WSW,243,0.0,1.0,39,0.00,,---,0.00,VWS V14.00,2013-05-15 21:44:00,
2013-05-15 16:49:00,79.3,52.3,29.29,WSW,244,0.0,1.0,39,0.00,,---,0.00,VWS V14.00,2013-05-15 21:49:00,
2013-05-15 16:54:00,79.3,52.3,29.29,ENE,64,4.7,7.4,39,0.00,,---,0.00,VWS V14.00,2013-05-15 21:54:00,
2013-05-15 16:59:00,78.6,51.6,29.29,West,265,4.0,5.8,39,0.00,,---,0.00,VWS V14.00,2013-05-15 21:59:00,
2013-05-15 17:04:00,78.6,50.9,29.29,SW,225,8.7,11.5,38,0.00,,---,0.00,VWS V14.00,2013-05-15 22:04:00,
2013-05-15 17:09:00,78.6,50.9,29.29,SSW,203,5.4,7.4,38,0.00,,---,0.00,VWS V14.00,2013-05-15 22:09:00,
2013-05-15 17:14:00,78.3,49.9,29.29,WSW,239,4.0,6.6,37,0.00,,---,0.00,VWS V14.00,2013-05-15 22:14:00,
2013-05-15 17:19:00,78.1,49.7,29.29,SW,219,11.4,14.7,37,0.00,,---,0.00,VWS V14.00,2013-05-15 22:19:00,
2013-05-15 17:25:00,77.9,49.6,29.29,West,262,0.0,5.8,37,0.00,,---,0.00,VWS V14.00,2013-05-15 22:25:00,
2013-05-15 17:30:00,77.9,50.3,29.29,WSW,256,6.0,8.2,38,0.00,,---,0.00,VWS V14.00,2013-05-15 22:30:00,
2013-05-15 17:35:00,77.9,50.3,29.29,SW,219,4.7,6.6,38,0.00,,---,0.00,VWS V14.00,2013-05-15 22:35:00,
2013-05-15 17:40:00,77.7,50.1,29.29,SSW,204,0.0,1.0,38,0.00,,---,0.00,VWS V14.00,2013-05-15 22:40:00,
2013-05-15 17:45:00,77.7,50.1,29.29,West,265,0.0,5.0,38,0.00,,---,0.00,VWS V14.00,2013-05-15 22:45:00,
2013-05-15 17:50:00,78.1,50.4,29.29,SW,228,0.0,1.0,38,0.00,,---,0.00,VWS V14.00,2013-05-15 22:50:00,
2013-05-15 17:55:00,77.9,50.3,29.29,WSW,252,0.0,1.0,38,0.00,,---,0.00,VWS V14.00,2013-05-15 22:55:00,
2013-05-15 18:01:00,77.7,49.4,29.29,SW,219,4.7,6.6,37,0.00,,---,0.00,VWS V14.00,2013-05-15 23:01:00,
2013-05-15 18:06:00,77.0,48.8,29.29,WSW,257,4.0,5.8,37,0.00,,---,0.00,VWS V14.00,2013-05-15 23:06:00,
2013-05-15 18:11:00,77.0,48.8,29.29,WSW,244,7.4,9.9,37,0.00,,---,0.00,VWS V14.00,2013-05-15 23:11:00,
2013-05-15 18:16:00,76.6,48.4,29.29,West,263,0.0,6.6,37,0.00,,---,0.00,VWS V14.00,2013-05-15 23:16:00,
2013-05-15 18:21:00,76.3,48.1,29.29,WSW,257,4.0,6.6,37,0.00,,---,0.00,VWS V14.00,2013-05-15 23:21:00,
2013-05-15 18:26:00,75.9,47.8,29.29,West,260,3.4,6.6,37,0.00,,---,0.00,VWS V14.00,2013-05-15 23:26:00,
2013-05-15 18:31:00,75.7,47.7,29.29,WSW,256,4.7,6.6,37,0.00,,---,0.00,VWS V14.00,2013-05-15 23:31:00,
2013-05-15 18:36:00,75.6,47.5,29.29,WSW,247,0.0,1.0,37,0.00,,---,0.00,VWS V14.00,2013-05-15 23:36:00,
2013-05-15 18:41:00,75.6,47.5,29.29,WSW,251,4.0,5.8,37,0.00,,---,0.00,VWS V14.00,2013-05-15 23:41:00,
2013-05-15 18:46:00,75.4,47.3,29.29,West,274,0.0,1.0,37,0.00,,---,0.00,VWS V14.00,2013-05-15 23:46:00,
2013-05-15 18:51:00,75.4,47.3,29.29,SSE,161,0.0,1.0,37,0.00,,---,0.00,VWS V14.00,2013-05-15 23:51:00,
2013-05-15 18:57:00,75.6,47.5,29.29,SSW,209,0.0,1.0,37,0.00,,---,0.00,VWS V14.00,2013-05-15 23:57:00,
2013-05-15 19:02:00,75.6,48.2,29.29,SSW,209,0.0,1.0,38,0.00,,---,0.00,VWS V14.00,2013-05-16 00:02:00,
2013-05-15 19:07:00,75.4,48.7,29.29,SSW,209,0.0,1.0,39,0.00,,---,0.00,VWS V14.00,2013-05-16 00:07:00,
2013-05-15 19:12:00,74.5,47.9,29.29,SSW,209,0.0,1.0,39,0.00,,---,0.00,VWS V14.00,2013-05-16 00:12:00,
2013-05-15 19:17:00,73.9,48.1,29.29,SSW,209,0.0,1.0,40,0.00,,---,0.00,VWS V14.00,2013-05-16 00:17:00,
2013-05-15 19:22:00,73.8,48.6,29.29,SSW,209,0.0,1.0,41,0.00,,---,0.00,VWS V14.00,2013-05-16 00:22:00,
2013-05-15 19:27:00,73.2,48.8,29.29,SSW,209,0.0,1.0,42,0.00,,---,0.00,VWS V14.00,2013-05-16 00:27:00,
2013-05-15 19:32:00,72.9,49.7,29.29,SSW,209,0.0,1.0,44,0.00,,---,0.00,VWS V14.00,2013-05-16 00:32:00,
2013-05-15 19:37:00,72.3,49.8,29.29,SSW,209,0.0,1.0,45,0.00,,---,0.00,VWS V14.00,2013-05-16 00:37:00,
2013-05-15 19:42:00,72.1,49.7,29.29,SSW,209,0.0,1.0,45,0.00,,---,0.00,VWS V14.00,2013-05-16 00:42:00,
2013-05-15 19:47:00,71.8,49.3,29.29,SSW,209,0.0,1.0,45,0.00,,---,0.00,VWS V14.00,2013-05-16 00:47:00,
2013-05-15 19:52:00,71.2,49.4,29.29,SSW,209,0.0,1.0,46,0.00,,---,0.00,VWS V14.00,2013-05-16 00:52:00,
2013-05-15 19:57:00,70.7,49.5,29.29,SSW,209,0.0,1.0,47,0.00,,---,0.00,VWS V14.00,2013-05-16 00:57:00,
2013-05-15 20:02:00,70.3,48.6,29.29,SSW,209,0.0,1.0,46,0.00,,---,0.00,VWS V14.00,2013-05-16 01:02:00,
2013-05-15 20:07:00,70.2,48.4,29.29,SSW,209,0.0,1.0,46,0.00,,---,0.00,VWS V14.00,2013-05-16 01:07:00,
2013-05-15 20:12:00,70.0,48.3,29.29,SSW,209,0.0,1.0,46,0.00,,---,0.00,VWS V14.00,2013-05-16 01:12:00,
2013-05-15 20:17:00,69.6,49.1,29.29,SSW,209,0.0,1.0,48,0.00,,---,0.00,VWS V14.00,2013-05-16 01:17:00,
2013-05-15 20:22:00,69.3,48.8,29.29,SSW,209,0.0,1.0,48,0.00,,---,0.00,VWS V14.00,2013-05-16 01:22:00,
2013-05-15 20:27:00,68.7,49.3,29.29,SSW,209,0.0,1.0,50,0.00,,---,0.00,VWS V14.00,2013-05-16 01:27:00,
2013-05-15 20:32:00,67.8,49.0,29.29,SSW,209,0.0,1.0,51,0.00,,---,0.00,VWS V14.00,2013-05-16 01:32:00,
2013-05-15 20:37:00,67.6,48.9,29.29,SSW,209,0.0,1.0,51,0.00,,---,0.00,VWS V14.00,2013-05-16 01:37:00,
2013-05-15 20:42:00,67.3,49.6,29.29,SSW,209,0.0,1.0,53,0.00,,---,0.00,VWS V14.00,2013-05-16 01:42:00,
2013-05-15 20:47:00,67.1,50.4,29.29,SSW,209,0.0,1.0,55,0.00,,---,0.00,VWS V14.00,2013-05-16 01:47:00,
2013-05-15 20:52:00,66.9,50.7,29.29,SSW,209,0.0,1.0,56,0.00,,---,0.00,VWS V14.00,2013-05-16 01:52:00,
2013-05-15 20:57:00,66.6,50.4,29.32,SSW,209,0.0,1.0,56,0.00,,---,0.00,VWS V14.00,2013-05-16 01:57:00,
2013-05-15 21:02:00,66.4,51.2,29.32,SSW,209,0.0,1.0,58,0.00,,---,0.00,VWS V14.00,2013-05-16 02:02:00,
2013-05-15 21:07:00,66.4,52.1,29.32,SSW,209,0.0,1.0,60,0.00,,---,0.00,VWS V14.00,2013-05-16 02:07:00,
2013-05-15 21:13:00,66.0,52.2,29.32,SSW,209,0.0,1.0,61,0.00,,---,0.00,VWS V14.00,2013-05-16 02:13:00,
2013-05-15 21:18:00,65.8,51.6,29.32,SSW,209,0.0,1.0,60,0.00,,---,0.00,VWS V14.00,2013-05-16 02:18:00,
2013-05-15 21:23:00,65.7,51.0,29.32,SSW,209,0.0,1.0,59,0.00,,---,0.00,VWS V14.00,2013-05-16 02:23:00,
2013-05-15 21:28:00,65.7,51.0,29.32,SSW,209,0.0,1.0,59,0.00,,---,0.00,VWS V14.00,2013-05-16 02:28:00,
2013-05-15 21:33:00,65.3,51.1,29.32,SSW,209,0.0,1.0,60,0.00,,---,0.00,VWS V14.00,2013-05-16 02:33:00,
2013-05-15 21:38:00,65.3,51.5,29.32,SSW,209,0.0,1.0,61,0.00,,---,0.00,VWS V14.00,2013-05-16 02:38:00,
2013-05-15 21:43:00,65.3,51.5,29.32,SSW,209,0.0,1.0,61,0.00,,---,0.00,VWS V14.00,2013-05-16 02:43:00,
2013-05-15 21:48:00,65.1,51.8,29.32,SSW,209,0.0,1.0,62,0.00,,---,0.00,VWS V14.00,2013-05-16 02:48:00,
2013-05-15 21:53:00,65.1,51.8,29.32,SSW,209,0.0,1.0,62,0.00,,---,0.00,VWS V14.00,2013-05-16 02:53:00,
2013-05-15 21:58:00,65.1,51.8,29.32,SSW,209,0.0,1.0,62,0.00,,---,0.00,VWS V14.00,2013-05-16 02:58:00,
2013-05-15 22:03:00,65.1,52.2,29.32,SSW,209,0.0,1.0,63,0.00,,---,0.00,VWS V14.00,2013-05-16 03:03:00,
2013-05-15 22:08:00,65.1,52.2,29.32,SSW,209,0.0,1.0,63,0.00,,---,0.00,VWS V14.00,2013-05-16 03:08:00,
2013-05-15 22:13:00,65.3,52.8,29.32,SSW,209,0.0,1.0,64,0.00,,---,0.00,VWS V14.00,2013-05-16 03:13:00,
2013-05-15 22:18:00,65.3,52.4,29.32,SSW,209,0.0,1.0,63,0.00,,---,0.00,VWS V14.00,2013-05-16 03:18:00,
2013-05-15 22:23:00,65.5,53.0,29.32,SSW,209,0.0,1.0,64,0.00,,---,0.00,VWS V14.00,2013-05-16 03:23:00,
2013-05-15 22:28:00,65.5,53.0,29.32,SSW,209,0.0,1.0,64,0.00,,---,0.00,VWS V14.00,2013-05-16 03:28:00,
2013-05-15 22:33:00,65.5,53.0,29.32,SSW,209,0.0,1.0,64,0.00,,---,0.00,VWS V14.00,2013-05-16 03:33:00,
2013-05-15 22:38:00,65.7,53.2,29.32,SSW,209,0.0,1.0,64,0.00,,---,0.00,VWS V14.00,2013-05-16 03:38:00,
2013-05-15 22:43:00,66.0,53.5,29.32,SW,217,0.0,1.0,64,0.00,,---,0.00,VWS V14.00,2013-05-16 03:43:00,
2013-05-15 22:49:00,66.4,53.0,29.32,WSW,239,0.0,1.0,62,0.00,,---,0.00,VWS V14.00,2013-05-16 03:49:00,
2013-05-15 22:54:00,66.9,53.0,29.32,WSW,239,0.0,1.0,61,0.00,,---,0.00,VWS V14.00,2013-05-16 03:54:00,
2013-05-15 22:59:00,66.9,53.0,29.32,WSW,244,0.0,1.0,61,0.00,,---,0.00,VWS V14.00,2013-05-16 03:59:00,
2013-05-15 23:01:00,66.9,53.0,29.32,WSW,244,0.0,1.0,61,0.00,,---,0.00,VWS V14.00,2013-05-16 04:01:00,
2013-05-15 23:06:00,66.7,52.9,29.32,WSW,244,0.0,1.0,61,0.00,,---,0.00,VWS V14.00,2013-05-16 04:06:00,
2013-05-15 23:11:00,66.7,52.9,29.32,WSW,244,0.0,1.0,61,0.00,,---,0.00,VWS V14.00,2013-05-16 04:11:00,
2013-05-15 23:16:00,66.6,52.7,29.32,WNW,292,0.0,1.0,61,0.00,,---,0.00,VWS V14.00,2013-05-16 04:16:00,
2013-05-15 23:21:00,66.4,52.5,29.32,West,280,0.0,1.0,61,0.00,,---,0.00,VWS V14.00,2013-05-16 04:21:00,
2013-05-15 23:26:00,66.4,52.5,29.32,West,280,0.0,1.0,61,0.00,,---,0.00,VWS V14.00,2013-05-16 04:26:00,
2013-05-15 23:31:00,66.4,53.0,29.32,West,280,0.0,1.0,62,0.00,,---,0.00,VWS V14.00,2013-05-16 04:31:00,
2013-05-15 23:36:00,66.6,53.2,29.32,WNW,287,0.0,1.0,62,0.00,,---,0.00,VWS V14.00,2013-05-16 04:36:00,
2013-05-15 23:41:00,66.6,53.2,29.32,West,277,0.0,1.0,62,0.00,,---,0.00,VWS V14.00,2013-05-16 04:41:00,
2013-05-15 23:46:00,66.7,53.3,29.32,West,262,3.4,5.0,62,0.00,,---,0.00,VWS V14.00,2013-05-16 04:46:00,
2013-05-15 23:51:00,66.9,53.5,29.32,West,265,0.0,1.0,62,0.00,,---,0.00,VWS V14.00,2013-05-16 04:51:00,
2013-05-15 23:56:00,66.9,53.5,29.32,West,268,0.0,1.0,62,0.00,,---,0.00,VWS V14.00,2013-05-16 04:56:00,